Theta_e
342 342 344 342 341 340 337 338 339 338 334 332 337 337 334 336 338 339 337 336 340 342 343 344 345 346 341 341 339 338 335 334 332 330 329 329 330 333 335 333 332 331 332 332 332 331 330 328 331 329 328 328 327 325 325 325 323 322 323 323 323 323 323 322 322 321 321 321 322 321 321 321 321 321 321 321 321 320 320 321 321 320 320 320 320
343 342 344 343 343 342 339 340 338 341 332 330 339 339 337 341 335 337 332 337 337 342 345 342 342 343 343 339 338 337 337 334 333 330 329 329 330 331 334 332 332 332 332 332 332 330 328 328 328 328 329 328 326 325 328 326 325 322 321 322 322 321 321 321 321 321 321 321 321 321 321 321 320 321 320 320 320 320 320 320 320 320 320 320 319
344 342 346 343 345 345 342 343 340 346 335 334 347 338 341 342 336 338 336 335 338 341 343 343 341 344 342 340 338 341 337 336 333 331 329 328 329 329 329 332 332 331 332 331 330 329 330 331 330 329 328 329 327 325 325 325 323 322 323 322 322 322 322 321 321 320 320 320 321 321 321 321 320 320 320 320 320 320 319 319 320 319 319 319 319
345 344 346 344 344 345 345 345 340 348 340 339 341 341 340 338 337 340 346 339 338 340 344 346 341 340 341 340 340 338 337 336 334 332 329 329 329 329 328 328 330 330 330 330 330 329 328 331 329 327 326 326 327 326 325 325 323 322 323 322 321 321 321 321 321 320 320 320 320 321 320 320 320 319 320 320 319 319 319 319 319 319 318 318 319
349 346 346 344 346 346 346 348 343 349 343 341 340 345 340 342 341 344 343 341 340 340 342 343 341 340 339 340 343 338 338 336 335 334 331 330 330 329 327 328 327 330 329 327 331 329 327 327 328 327 326 326 324 325 324 324 323 323 322 321 321 321 320 321 321 320 320 320 320 320 320 320 321 319 319 319 319 319 319 319 318 318 318 318 318
349 350 347 344 347 345 344 346 345 350 342 346 343 342 342 338 336 342 341 341 337 339 341 341 341 341 344 340 341 341 340 339 335 335 333 331 330 328 327 327 327 326 326 329 331 328 327 327 326 326 327 325 324 325 324 324 322 322 321 321 321 321 321 320 320 320 320 320 320 320 320 320 320 319 319 319 319 319 319 318 318 318 318 318 318
349 352 348 346 346 344 346 345 348 350 342 349 341 344 342 337 335 337 339 340 337 338 337 339 340 339 340 340 340 340 342 338 337 335 336 334 334 329 328 327 327 326 325 325 329 328 326 326 326 326 325 325 324 325 324 323 323 322 321 321 321 320 320 320 319 319 320 320 320 319 319 319 320 319 319 319 319 319 318 318 318 317 318 317 317
349 350 350 347 346 343 347 346 348 347 344 349 343 339 340 338 339 340 336 336 337 337 338 338 339 340 341 343 341 341 338 339 340 337 335 335 333 334 329 329 328 326 328 324 325 325 326 326 326 325 325 325 324 323 323 323 322 322 321 321 321 320 320 319 320 320 320 320 320 320 320 320 319 319 319 318 319 319 318 317 317 317 317 317 317
349 348 351 348 347 344 346 348 349 346 347 347 344 340 341 334 338 340 337 338 334 335 337 339 339 340 341 340 340 340 339 337 338 340 337 334 335 336 334 333 331 333 327 325 325 323 325 326 325 325 324 324 324 324 323 323 323 322 321 321 321 320 319 319 319 319 319 320 320 320 320 320 320 319 319 319 319 318 318 317 317 317 317 317 317
347 348 349 350 347 345 346 348 346 347 348 345 342 339 341 333 337 342 336 337 334 334 336 338 339 339 339 340 341 340 340 339 339 342 337 333 335 334 333 334 332 329 328 327 324 323 322 324 325 325 325 324 322 322 322 322 321 322 321 321 319 318 319 319 319 319 320 320 319 319 319 319 319 319 319 319 318 318 318 317 317 316 316 316 316
347 348 347 347 345 346 344 347 346 346 346 342 339 338 339 337 338 343 341 338 340 337 337 339 340 339 338 339 341 341 340 340 339 338 339 338 337 335 335 333 334 332 330 327 325 323 321 322 321 321 322 324 323 323 322 322 321 321 319 320 320 320 320 320 320 319 319 319 319 319 319 319 318 319 318 318 318 318 318 318 317 316 316 316 316
347 347 347 346 346 346 347 347 346 345 344 341 335 337 337 338 339 342 341 340 346 339 339 339 339 339 338 340 341 342 340 339 339 337 338 336 336 335 334 333 333 332 331 327 327 325 323 323 324 322 321 322 323 322 322 322 321 321 321 320 320 320 318 318 318 319 319 318 318 319 319 319 318 318 318 318 318 318 318 318 317 317 316 316 315
347 347 345 345 349 347 347 345 345 344 345 343 336 340 339 344 341 343 340 339 342 339 339 339 337 336 338 338 339 341 341 339 338 338 337 338 338 336 338 334 332 332 330 329 329 327 325 324 323 322 320 319 320 323 322 321 321 321 321 321 320 319 320 320 320 319 318 318 318 318 318 318 318 318 318 318 318 318 317 317 316 316 316 316 315
347 347 346 344 348 347 345 344 345 345 346 345 337 346 339 344 343 341 342 337 340 339 339 338 334 331 331 332 335 337 339 338 337 337 338 337 337 337 335 332 332 332 333 330 329 329 328 326 326 321 320 320 319 318 319 319 320 322 321 321 320 320 320 319 318 318 318 317 317 317 318 318 318 318 318 318 318 317 317 317 315 316 316 315 315
347 347 347 346 348 348 345 344 346 345 344 340 341 345 340 342 342 340 338 339 341 341 338 337 332 333 333 330 327 327 332 333 337 337 336 336 336 334 337 333 331 333 332 331 329 329 329 327 327 322 321 320 319 319 318 321 320 322 322 321 320 319 320 319 319 319 318 317 317 317 317 318 318 318 318 318 318 316 316 316 315 315 315 315 315
346 347 347 345 348 347 346 344 344 345 344 338 343 344 342 342 342 341 339 334 333 337 339 338 337 333 326 327 327 327 324 326 328 333 336 336 335 334 334 334 335 334 331 330 330 330 330 327 327 325 322 322 320 319 319 318 321 322 323 321 320 319 319 320 319 318 317 317 316 317 317 317 317 317 317 317 317 316 316 316 315 314 314 314 314
345 346 345 346 347 348 346 345 344 347 344 340 342 342 341 342 343 340 339 336 331 338 338 338 338 343 335 328 328 325 325 328 329 330 334 334 334 334 334 334 333 334 334 332 332 331 330 329 329 328 325 324 321 320 320 320 319 322 321 321 320 320 320 319 318 318 317 317 316 316 316 317 316 317 317 317 316 315 316 316 315 314 314 314 313
344 346 344 346 346 348 346 346 344 347 344 341 343 342 341 340 342 340 340 341 336 336 334 338 340 340 341 344 341 331 328 330 328 322 332 334 334 333 333 334 334 333 333 333 332 333 333 330 331 330 328 327 323 323 321 320 321 320 319 318 320 320 320 319 319 318 317 317 317 317 317 317 317 317 317 317 316 315 315 316 315 314 313 313 313
343 344 344 346 346 347 347 347 346 346 346 343 342 341 340 339 341 339 340 340 341 337 333 335 337 338 341 342 342 336 337 331 326 328 323 329 333 332 332 334 333 333 332 331 332 331 331 331 330 329 328 327 325 323 323 319 322 322 323 322 321 320 320 319 319 318 317 316 316 317 318 317 317 317 317 317 316 316 315 316 315 313 312 312 312
342 342 345 346 346 346 348 348 346 346 345 344 344 343 342 341 342 340 343 341 340 339 335 336 331 333 337 338 339 339 338 339 337 329 327 323 326 333 334 333 333 333 332 331 332 331 329 331 330 329 328 326 327 326 322 320 320 321 322 323 322 321 321 320 319 318 317 317 317 317 318 318 317 317 317 317 316 315 315 315 314 313 312 312 312
342 341 343 344 346 346 347 347 347 345 345 344 344 343 343 342 342 341 340 342 343 342 341 336 335 334 335 335 337 336 336 338 338 336 330 324 325 326 328 333 333 333 333 335 332 332 331 330 330 329 327 326 327 326 323 322 322 321 323 324 323 322 321 321 320 320 319 318 317 317 317 317 317 317 317 316 315 314 314 315 314 313 312 312 312
342 340 342 344 346 346 348 347 347 346 345 344 343 343 343 344 345 343 342 342 344 343 342 342 338 339 338 337 333 333 333 334 335 334 333 332 325 326 328 327 326 330 333 332 332 332 331 331 330 329 327 326 326 326 324 323 323 323 322 324 324 322 321 321 320 319 319 319 318 317 317 318 317 318 317 316 315 314 315 315 315 314 313 312 312
341 340 341 343 346 347 347 346 347 347 344 344 343 343 344 344 346 346 344 343 343 342 343 343 343 339 340 338 334 335 332 331 334 333 332 329 327 326 328 329 328 328 330 332 331 331 331 330 329 328 328 326 325 325 324 324 325 324 323 324 324 323 322 321 320 319 319 319 319 318 318 318 318 318 318 317 315 314 314 315 315 313 313 312 311
343 340 341 344 346 347 348 347 346 347 345 345 344 344 345 344 345 345 344 344 345 343 342 341 342 341 339 341 338 339 340 340 339 339 336 333 332 328 327 329 329 329 332 331 332 331 330 329 329 328 328 327 326 326 324 325 324 324 323 323 323 323 322 321 320 319 319 319 318 319 318 319 318 318 318 317 315 315 315 315 314 313 312 312 311
344 342 343 345 347 348 347 346 346 347 346 346 345 344 344 344 344 345 344 343 343 343 342 342 342 341 340 342 343 342 341 344 342 338 338 337 333 329 330 331 327 329 330 330 328 331 331 329 329 329 328 327 327 326 325 324 324 323 322 322 322 322 322 322 321 319 319 319 318 318 318 318 318 317 318 316 315 315 315 315 314 313 312 312 313
345 344 346 347 348 348 348 347 348 348 347 346 345 344 345 344 344 344 343 344 344 344 343 343 343 343 344 343 341 341 341 345 344 341 338 336 333 330 328 329 329 329 329 328 329 326 327 329 330 329 328 327 326 326 325 325 323 323 322 321 320 320 320 321 321 320 319 318 321 318 318 318 317 316 316 315 315 315 315 315 314 313 313 313 312
346 347 348 347 348 348 348 348 348 347 347 346 346 346 346 344 343 344 344 345 344 344 343 343 343 343 343 343 342 341 342 347 344 342 341 339 337 336 330 325 326 329 325 328 327 326 325 327 329 328 328 327 327 326 326 325 323 323 322 320 320 319 318 318 321 322 320 319 322 320 320 318 316 316 315 315 314 315 315 315 314 314 313 312 312
349 348 349 348 348 348 348 348 348 348 347 346 346 345 346 344 344 344 344 346 344 344 344 344 343 343 343 344 342 341 343 344 341 342 342 342 341 341 335 329 325 321 325 324 324 325 328 324 327 328 327 327 327 326 327 325 323 322 323 320 319 318 317 316 319 323 321 319 319 319 318 318 316 315 315 314 315 315 315 314 314 314 313 313 312
351 349 349 349 349 349 348 348 348 348 347 347 347 346 346 345 344 343 343 344 344 344 344 343 343 344 344 344 342 342 343 344 342 341 341 341 341 339 338 335 330 326 322 322 323 323 325 325 322 326 328 327 326 327 326 325 323 322 321 320 319 318 316 315 317 322 321 320 320 320 319 318 317 316 315 315 314 314 314 314 315 314 314 313 313
352 351 350 349 349 349 348 348 348 348 348 347 347 347 347 345 345 344 344 344 343 344 344 344 343 344 344 344 343 342 343 343 344 343 339 339 341 341 340 338 336 330 327 322 323 327 324 325 325 323 326 326 327 326 326 325 322 322 322 321 320 319 316 314 314 316 316 316 316 318 319 319 318 316 315 315 314 313 314 315 315 315 314 314 313
352 351 350 350 349 349 349 349 349 348 348 347 347 346 347 345 345 344 344 344 343 342 344 344 344 344 343 343 343 342 343 342 343 344 343 342 341 341 339 339 338 335 331 329 321 329 326 322 324 327 326 326 326 325 326 326 323 322 322 322 321 319 317 315 314 314 314 314 314 316 318 319 318 316 315 315 314 314 315 315 316 315 314 313 313
352 352 351 350 349 348 349 349 349 348 347 347 347 347 346 346 345 344 344 344 343 341 342 344 344 344 343 342 342 341 342 342 343 343 342 342 342 340 340 339 337 337 335 331 326 325 331 326 326 325 327 326 325 324 324 325 322 320 322 323 323 319 317 317 313 313 313 312 312 313 315 317 317 316 315 314 314 314 315 316 315 314 314 313 312
351 351 352 350 349 349 349 348 349 348 347 347 347 347 346 345 346 345 344 343 341 341 340 341 342 342 342 342 341 342 343 342 341 342 342 341 341 341 340 338 336 336 333 330 324 323 326 330 327 325 326 326 324 325 323 323 321 321 321 323 323 320 319 317 316 312 312 310 309 309 310 311 313 315 315 315 314 315 316 315 313 312 314 314 311
351 351 351 351 350 350 349 349 349 349 348 347 347 346 345 345 345 345 344 343 341 340 340 339 340 341 342 341 341 342 344 342 342 341 341 340 340 339 337 337 336 334 335 332 328 323 323 327 326 328 324 326 322 325 323 322 320 321 321 323 325 321 320 318 316 314 310 310 309 309 309 309 309 310 313 314 312 310 310 309 308 309 312 314 310
345 350 350 350 349 349 349 349 349 349 348 348 348 346 345 345 344 344 344 343 341 340 339 338 338 339 340 341 341 342 344 342 342 341 340 340 339 338 336 337 336 335 334 334 330 325 324 324 328 324 323 324 323 323 325 325 322 322 321 322 323 322 322 320 317 316 309 309 308 308 308 308 307 307 308 309 308 307 307 307 306 306 308 309 306
344 348 349 350 349 348 348 348 348 348 348 348 347 346 345 345 345 344 343 343 342 341 339 338 338 338 338 340 341 342 342 341 341 341 341 340 338 337 336 336 337 337 335 334 334 329 326 324 325 324 324 323 324 325 325 325 323 322 322 322 323 322 322 322 319 317 312 308 308 308 308 307 307 306 307 307 307 306 306 306 305 305 305 306 305
343 346 348 350 350 349 349 348 348 348 348 348 347 346 346 346 345 344 343 343 342 342 341 339 340 338 338 339 341 341 342 340 340 340 340 339 339 337 335 336 335 337 337 335 334 333 328 325 325 326 324 323 324 323 324 323 323 322 322 321 321 321 321 322 322 320 312 308 308 308 308 307 306 306 306 306 306 306 305 305 304 304 304 304 303
340 343 347 347 348 348 348 348 348 348 348 347 347 347 346 346 345 344 344 342 342 342 340 340 339 339 338 339 341 342 341 340 339 340 340 340 339 337 336 335 335 335 335 334 334 332 327 326 326 324 324 322 321 322 323 323 321 320 320 321 321 321 320 319 320 321 315 311 311 309 308 307 306 306 306 306 305 305 305 304 304 304 304 303 303
339 341 346 346 346 348 347 348 348 348 348 347 347 347 347 346 345 344 343 342 342 341 341 340 340 340 340 340 341 342 342 342 341 340 341 341 340 337 336 336 336 334 333 333 332 330 326 325 325 325 324 324 322 320 322 323 322 321 318 318 317 319 320 319 317 319 314 312 311 310 310 309 308 307 306 306 306 305 305 304 304 304 304 303 302
337 339 343 346 345 346 346 347 348 348 347 346 346 346 347 346 345 344 343 342 341 341 341 341 340 340 341 341 341 342 343 343 342 342 342 341 340 338 338 337 336 334 333 332 331 329 326 324 323 324 323 323 321 322 323 322 320 320 320 318 315 315 317 319 318 316 313 312 310 310 310 309 309 308 307 307 307 306 306 305 305 305 304 303 302
336 336 338 343 346 345 345 345 345 346 347 346 346 346 346 345 344 343 343 341 340 340 340 340 340 340 340 341 341 342 343 341 334 335 336 337 341 337 337 337 335 334 333 332 330 327 326 324 323 325 323 322 322 320 319 318 318 317 319 319 316 317 317 317 318 318 314 312 311 310 309 309 308 307 307 306 307 307 307 306 306 306 304 301 300
337 337 336 335 335 340 343 344 344 345 346 347 338 328 331 344 344 343 343 342 341 340 340 339 339 339 339 340 341 340 336 334 329 322 321 324 330 337 339 337 335 334 333 332 329 326 324 323 323 324 323 321 321 321 320 320 320 320 319 318 315 316 316 316 316 317 315 313 311 309 310 311 309 308 307 306 307 308 307 306 306 305 303 300 299
334 334 337 336 336 336 339 343 343 344 345 345 324 316 316 322 340 343 342 342 341 341 340 339 338 338 339 339 340 340 335 333 330 317 316 316 318 322 325 328 331 336 334 332 332 326 323 323 324 323 323 322 322 323 322 322 321 320 319 318 317 316 315 313 311 313 316 314 312 309 309 311 310 307 307 307 307 307 307 307 305 304 303 300 298
341 340 337 336 336 334 335 339 343 343 344 331 315 314 313 313 323 343 343 342 341 340 340 340 339 338 338 339 339 341 340 339 339 327 320 315 314 315 315 316 317 319 321 332 333 327 323 322 322 323 323 322 323 323 322 322 321 320 320 319 317 316 315 314 313 311 315 316 312 310 309 311 311 309 308 309 309 308 308 306 304 303 302 301 299
337 335 334 334 333 334 334 337 339 343 343 324 313 312 312 312 312 330 343 342 340 340 340 340 339 338 338 338 338 340 341 334 337 337 332 326 314 314 315 315 316 314 311 310 310 325 328 324 323 323 324 324 323 323 323 323 323 320 319 318 317 317 317 315 314 314 315 317 314 311 309 311 311 309 309 310 310 310 309 306 305 303 302 301 299
335 334 333 333 334 335 336 337 336 340 343 326 311 310 311 310 309 318 343 342 341 341 341 340 340 339 338 338 337 338 339 339 339 340 336 333 328 326 327 328 331 325 314 312 311 306 317 327 326 324 326 327 325 326 326 324 322 321 319 318 319 318 317 316 317 316 317 318 314 312 310 312 312 310 308 310 312 311 310 307 304 303 302 301 300
332 332 333 334 335 334 335 335 336 338 344 319 309 309 308 307 307 312 342 343 342 341 341 341 340 340 339 339 338 338 338 340 340 338 338 336 333 331 331 332 333 333 331 329 325 322 324 329 328 328 329 329 329 329 328 326 324 324 323 321 321 320 320 320 318 318 318 318 317 314 309 312 314 310 310 311 311 310 310 307 304 303 302 302 301
331 332 331 332 332 333 334 334 334 335 342 316 309 308 308 307 306 320 339 342 341 341 341 341 341 341 340 340 339 339 339 340 329 317 326 338 335 333 333 333 333 333 334 328 319 317 325 329 330 331 331 332 313 321 319 323 326 325 325 323 323 322 320 317 316 317 315 320 318 315 312 312 314 311 310 312 311 310 310 310 305 303 302 301 301
330 329 330 330 331 332 333 334 334 334 338 323 309 309 308 307 307 325 336 341 340 340 340 341 341 341 340 340 340 340 340 340 325 310 313 324 337 334 334 333 333 333 333 333 314 308 308 310 312 313 314 304 302 304 301 303 311 323 324 322 320 322 319 316 316 316 316 318 318 317 314 311 314 313 311 311 311 309 310 310 309 303 302 301 301
330 330 330 330 331 331 330 332 332 331 333 324 307 311 310 307 314 330 336 340 340 339 339 341 341 341 340 332 337 341 340 340 317 306 308 325 338 336 334 333 332 331 331 332 329 321 304 304 304 304 303 303 304 299 301 303 306 309 325 320 321 322 319 318 315 316 317 317 316 319 313 312 314 315 312 311 309 309 311 311 310 306 302 301 300
329 329 328 329 330 331 331 331 325 328 330 327 306 307 307 307 315 333 337 339 340 340 340 340 341 341 341 333 328 332 337 332 311 306 306 324 339 338 336 334 332 331 332 333 330 328 324 321 320 318 315 312 313 315 318 308 306 311 321 325 324 322 319 319 318 316 315 316 317 320 314 313 313 315 314 308 305 309 311 311 310 307 305 304 302
Wind_Speed
7 7 5 6 7 7 6 7 6 6 7 6 6 6 5 6 4 2 5 5 7 5 3 2 3 2 3 3 4 3 5 8 8 8 5 7 7 7 10 10 9 10 11 12 11 9 9 11 14 12 13 13 13 12 14 15 13 13 14 13 13 14 13 13 13 13 13 13 14 14 14 14 14 14 15 15 16 15 15 16 17 17 17 17 17
6 7 5 6 6 7 6 6 6 5 8 6 5 5 6 2 4 3 5 4 5 5 3 4 3 3 3 3 4 4 3 8 8 7 6 6 7 6 12 10 10 10 10 10 11 10 10 11 11 11 13 12 12 12 15 12 13 13 12 12 13 12 13 13 12 12 12 12 13 13 14 14 13 13 14 15 15 15 15 16 16 17 17 16 17
7 6 4 5 5 6 6 5 6 3 7 5 3 4 3 2 3 3 5 4 6 6 4 3 5 2 3 4 4 2 4 6 8 8 8 6 6 5 7 10 9 9 11 10 9 10 11 11 12 11 11 12 12 11 12 12 11 11 13 13 13 13 12 12 12 11 12 12 12 13 13 14 13 12 13 14 15 14 15 15 16 16 16 16 17
7 6 4 4 3 4 4 4 5 3 5 4 4 3 3 2 3 3 2 5 6 5 4 3 4 3 3 3 3 4 4 5 7 9 8 7 7 6 4 6 9 9 7 7 10 10 9 12 10 10 9 10 12 11 11 12 12 12 11 11 12 12 12 12 12 12 11 11 12 12 12 13 13 12 12 13 14 14 14 15 15 16 16 16 16
6 6 5 4 3 4 3 3 5 3 4 4 4 3 3 3 3 2 3 4 5 5 5 3 3 3 4 4 2 3 3 5 5 6 8 6 7 7 6 5 6 9 8 4 12 9 7 9 10 9 10 10 8 10 10 10 11 10 11 11 11 11 11 11 11 11 10 11 11 11 12 12 13 12 12 13 13 14 14 14 15 15 15 15 15
5 5 5 5 4 4 4 3 4 3 5 4 4 3 3 3 3 2 3 4 4 5 4 3 5 4 2 4 3 3 5 2 5 5 7 6 6 8 6 5 5 4 5 9 12 10 8 8 8 9 10 9 8 10 10 10 10 11 9 10 10 11 11 10 10 10 11 11 10 10 11 11 12 12 11 12 13 13 14 13 14 15 14 14 15
5 4 4 5 4 5 4 4 3 3 5 3 5 3 3 3 4 3 3 3 4 5 4 4 3 5 4 5 3 4 2 3 3 5 5 6 6 8 7 7 6 6 5 4 9 11 8 7 8 7 7 8 9 9 9 9 10 10 10 10 10 10 10 10 10 10 10 10 10 10 10 10 11 12 11 11 12 13 13 13 13 14 13 14 14
6 4 4 4 5 5 4 4 4 4 5 3 3 4 3 4 4 3 6 3 5 4 5 4 4 5 3 3 3 3 4 2 2 3 5 4 3 5 8 7 8 6 7 6 5 7 10 8 8 8 8 8 9 8 9 9 9 9 8 9 10 9 10 9 10 10 10 10 10 10 10 10 10 11 11 11 12 13 13 12 13 13 13 14 14
7 6 4 5 5 5 5 5 4 5 4 4 3 5 3 6 4 4 7 4 5 4 5 5 4 4 3 4 3 3 4 3 2 1 6 6 4 2 4 6 8 11 7 6 6 5 9 10 9 8 7 8 8 9 9 9 9 9 9 9 9 8 7 8 9 10 10 10 9 9 9 9 9 9 10 11 11 12 13 12 12 13 13 13 13
7 6 5 4 5 6 5 6 5 5 4 5 5 4 3 6 4 3 7 4 5 4 6 5 4 4 3 4 3 4 3 4 2 0 2 5 4 5 5 3 7 8 8 7 7 6 5 8 9 9 10 9 8 8 8 8 8 8 9 9 8 8 8 8 8 9 9 9 9 9 8 9 8 8 10 11 11 12 12 11 12 12 12 13 13
8 7 6 5 5 6 6 7 5 6 5 5 6 5 4 5 5 3 4 4 3 5 6 5 4 4 3 4 3 3 3 3 4 2 0 2 0 4 5 4 3 7 8 8 7 6 6 5 4 4 6 11 9 10 9 8 8 8 8 8 9 8 7 8 8 8 8 8 9 8 8 8 8 8 9 10 10 11 11 11 11 12 12 13 13
9 8 7 7 5 6 6 7 5 5 6 6 6 5 6 5 6 4 4 4 1 8 6 6 4 3 4 3 3 3 2 3 3 3 2 4 2 3 3 4 3 4 8 8 7 7 7 7 6 6 6 8 11 10 10 9 9 9 9 8 8 8 8 7 7 8 8 8 8 7 7 8 8 7 8 9 10 10 10 11 11 11 12 12 12
9 8 8 8 5 5 7 7 5 6 6 6 7 5 7 4 5 4 5 4 2 7 7 6 5 4 4 3 2 2 2 2 3 2 2 2 1 2 1 4 4 4 5 6 8 8 8 8 7 7 6 5 7 11 10 9 10 9 10 9 8 8 8 8 8 8 8 7 7 7 7 7 7 7 8 9 9 10 9 10 10 11 11 12 12
9 8 8 9 6 6 8 8 6 6 6 5 7 4 7 5 5 4 4 5 3 7 7 8 5 5 5 3 2 1 2 2 3 3 2 1 1 0 4 5 5 5 5 7 6 7 8 8 6 8 7 7 5 5 6 6 8 11 10 10 9 9 8 8 7 7 7 7 7 7 7 7 7 7 8 9 9 9 9 10 10 10 11 11 12
9 9 8 9 7 6 8 7 6 6 6 7 7 5 8 7 6 5 5 3 2 6 8 6 6 5 5 4 3 4 1 1 1 2 3 3 3 3 2 2 5 4 5 5 6 7 5 6 7 9 8 7 7 6 5 6 6 12 11 11 9 9 9 8 8 8 7 7 7 7 7 7 7 7 8 9 9 8 8 9 9 10 10 11 11
10 10 9 9 8 7 8 8 7 6 7 7 5 6 8 7 6 6 5 4 4 5 8 7 5 7 6 4 4 5 3 6 5 3 3 3 3 3 3 3 2 4 6 5 4 5 5 7 6 9 10 9 8 7 7 5 11 12 12 11 11 10 9 9 8 8 8 7 7 7 7 7 7 7 8 9 9 8 8 9 10 9 10 11 11
10 11 10 9 8 7 8 8 7 6 7 6 6 6 7 6 6 6 6 5 6 3 6 8 6 2 1 4 2 3 3 2 6 2 4 3 5 4 3 3 3 3 3 5 4 5 5 5 5 7 9 9 9 8 8 7 8 6 9 12 12 11 11 9 9 8 8 7 7 7 7 7 7 7 8 9 9 8 8 9 9 9 10 10 11
10 10 10 9 8 7 8 8 8 6 7 6 6 7 8 8 7 6 6 5 5 5 5 5 5 4 4 2 2 0 2 4 6 3 3 4 4 6 6 4 3 4 3 4 4 4 5 4 3 4 7 6 9 8 8 7 8 7 6 8 13 12 11 10 10 8 8 8 8 7 7 7 7 7 8 8 8 8 8 9 9 9 9 10 11
10 9 9 9 9 7 8 8 9 7 7 7 7 8 9 9 7 7 6 6 5 4 8 6 4 3 3 2 4 4 5 5 3 5 4 3 3 4 5 6 4 5 5 4 5 5 6 4 4 3 4 4 7 6 6 8 10 10 14 14 15 13 13 12 11 9 9 8 8 8 8 7 7 7 8 8 8 8 8 8 9 9 9 9 10
9 10 10 10 9 8 8 8 9 8 8 8 8 8 7 7 7 8 6 6 6 4 6 7 7 4 3 3 3 7 6 2 1 3 3 5 4 3 3 4 4 5 6 6 6 6 6 4 5 4 4 5 5 6 8 9 8 9 10 17 15 15 15 13 12 11 10 9 9 8 8 8 7 8 8 8 8 8 8 8 9 9 9 9 10
10 10 10 10 10 9 8 8 8 9 8 8 7 8 9 7 8 9 8 6 5 5 4 6 7 5 6 5 3 4 5 4 4 3 2 2 3 6 5 4 3 4 5 4 6 6 7 7 6 5 4 4 4 6 8 8 8 8 11 17 17 16 15 15 15 13 11 10 9 9 8 8 8 8 8 8 8 8 8 8 9 9 8 9 9
10 11 10 11 11 10 9 10 9 10 9 9 8 8 8 7 7 9 9 6 5 5 4 4 7 6 7 6 5 4 4 3 4 5 4 4 3 6 7 8 7 6 5 5 6 6 6 6 6 6 4 5 4 4 7 8 8 7 12 18 17 16 17 15 14 14 13 12 10 9 9 9 9 9 9 8 8 8 8 8 9 9 9 8 8
10 10 11 11 11 11 9 10 9 8 9 9 8 8 8 7 6 7 8 8 6 5 4 3 4 6 4 7 7 5 5 4 4 4 3 2 3 3 4 7 8 6 7 6 6 6 7 6 6 6 5 5 5 4 5 7 10 10 18 18 17 17 17 15 14 12 12 12 12 10 10 9 9 9 9 9 9 8 9 9 9 9 9 8 8
10 10 10 10 10 10 10 9 10 9 10 8 7 7 8 7 6 6 7 7 5 6 5 5 4 5 5 5 7 5 4 3 3 2 4 3 5 4 5 3 2 1 5 6 5 3 7 7 7 6 7 5 6 5 5 4 5 19 16 18 17 17 17 16 15 14 13 12 11 11 10 10 10 10 9 9 9 9 9 9 9 9 9 9 8
10 11 11 12 10 10 10 9 8 9 8 8 8 9 8 7 7 6 6 7 7 6 6 6 5 5 5 3 2 3 2 4 5 4 2 2 4 2 3 2 2 2 4 7 5 5 7 7 7 7 7 6 5 6 5 6 5 16 16 14 18 15 16 17 16 16 13 12 13 11 11 11 11 10 10 10 10 9 9 9 9 9 9 9 8
12 11 11 12 10 10 11 10 9 9 9 9 8 8 8 9 8 6 7 6 6 7 6 6 5 5 4 4 4 4 4 4 5 5 4 4 4 5 3 2 2 2 3 4 4 4 4 6 7 6 7 6 6 6 5 5 8 17 18 13 15 17 16 16 16 17 15 13 12 12 12 11 11 11 10 10 10 10 10 10 10 10 9 9 8
11 10 12 12 10 10 11 10 10 10 9 9 7 7 7 8 7 7 6 6 6 6 6 7 7 7 6 5 5 6 5 5 6 5 5 6 5 4 5 3 1 1 4 6 6 8 6 6 7 7 8 8 7 6 5 4 10 17 17 13 11 17 16 16 16 16 16 15 11 14 12 12 12 11 11 11 11 11 10 11 11 11 10 9 9
10 11 12 13 11 10 10 10 9 9 9 9 8 7 7 8 7 7 7 6 7 7 7 7 7 7 7 6 5 5 5 5 6 6 5 4 3 4 5 5 5 4 5 5 6 8 10 7 7 8 8 8 8 7 8 7 9 16 15 9 9 11 16 15 16 17 17 16 13 16 15 14 14 13 13 13 12 12 12 12 12 11 11 10 10
9 11 12 12 12 11 11 10 10 9 10 9 8 8 8 7 7 8 9 7 7 8 8 7 7 6 6 7 7 6 5 5 6 6 5 3 4 5 5 6 6 4 5 6 8 7 9 9 7 8 9 8 8 8 8 7 10 13 9 8 9 9 14 16 15 15 16 15 12 16 16 17 16 15 14 14 14 13 13 13 12 12 12 12 11
10 10 11 13 12 13 11 11 10 10 10 11 9 8 8 8 8 8 9 9 8 6 7 7 7 6 7 7 6 6 6 6 7 8 7 5 5 5 5 5 6 6 4 4 4 9 6 8 7 8 9 9 8 8 9 8 13 15 10 9 9 10 16 16 15 14 16 15 13 15 16 18 18 17 16 15 15 14 14 14 13 13 13 13 12
11 12 12 13 13 13 12 12 11 11 10 11 10 9 9 8 9 8 8 8 8 7 6 7 7 7 8 8 8 7 7 7 7 8 8 8 7 6 6 6 5 4 3 2 2 1 9 9 8 9 10 10 9 8 8 8 12 16 12 9 10 13 17 15 16 16 17 16 14 15 17 18 18 18 17 16 16 16 15 15 14 13 13 13 12
12 13 13 13 13 13 12 13 13 12 11 10 11 10 10 9 9 8 8 9 9 9 7 6 7 8 8 9 9 8 8 7 7 8 8 8 7 6 6 5 5 4 1 1 3 2 3 7 6 10 12 10 10 10 9 8 11 18 10 9 11 15 13 11 16 16 17 15 15 17 18 17 17 18 18 17 17 17 16 15 15 14 12 11 12
12 13 13 14 14 13 14 13 13 13 12 11 11 10 10 10 10 10 10 10 10 9 9 8 9 8 9 9 9 9 8 8 7 7 8 8 7 7 6 6 5 4 4 2 3 2 1 3 6 9 11 11 9 11 10 8 9 11 12 9 8 10 10 10 10 15 16 15 16 18 18 17 16 17 18 18 17 17 17 15 13 12 12 12 14
12 14 15 13 13 14 13 14 14 14 14 13 12 11 12 12 11 9 11 12 11 11 11 10 10 9 8 10 10 10 10 9 8 9 9 8 7 6 5 5 5 6 5 4 5 2 4 1 3 7 10 12 9 11 10 9 9 10 12 9 6 10 10 9 9 10 16 16 18 19 18 18 17 16 16 17 15 15 14 14 13 13 13 13 14
14 13 14 14 14 15 14 14 15 14 14 14 12 13 13 13 13 12 11 13 12 11 12 12 11 10 10 10 11 10 8 10 10 9 8 9 8 8 7 6 5 6 6 6 4 4 6 5 4 5 9 9 9 11 11 9 10 11 12 11 8 8 8 9 9 8 15 17 19 19 19 18 17 17 16 16 15 15 14 14 13 14 14 14 14
17 13 13 14 14 14 15 15 15 15 15 14 14 14 15 14 14 14 13 13 13 12 12 12 12 11 11 11 11 10 9 11 10 10 8 9 9 9 8 7 6 5 7 7 5 3 3 7 5 5 6 9 7 11 8 9 10 10 10 10 8 9 9 9 9 8 13 18 19 19 19 19 18 18 17 16 15 15 15 14 15 15 15 15 14
16 14 13 13 14 14 13 15 16 15 16 16 15 15 14 14 15 14 14 13 13 13 13 12 12 12 11 11 11 11 10 10 10 9 9 9 8 8 8 8 7 6 5 6 6 5 4 5 6 4 6 6 5 9 11 11 8 8 8 9 9 10 9 9 8 9 15 21 20 20 19 19 19 19 18 17 16 16 16 15 16 16 16 16 15
18 16 15 14 13 15 15 15 16 16 15 15 16 15 15 15 14 14 14 14 14 13 13 12 12 11 11 11 11 11 11 11 11 9 9 11 8 9 9 8 8 7 7 7 6 6 5 5 6 6 6 8 7 6 11 11 10 9 8 10 7 9 9 9 9 8 9 11 10 12 16 17 19 20 19 18 17 17 17 16 16 17 17 16 16
18 17 15 15 13 16 17 16 16 16 15 15 15 15 15 16 15 15 14 14 13 12 12 13 12 11 12 12 11 12 12 12 11 10 10 10 9 8 9 9 8 8 8 8 8 8 7 6 4 7 7 7 8 7 10 11 11 10 11 10 9 8 8 10 9 7 8 12 17 21 17 16 17 16 18 19 19 19 18 18 17 18 17 17 17
17 19 19 15 14 14 15 15 16 15 15 15 16 16 16 16 15 15 15 14 14 13 12 12 12 12 12 12 11 12 13 12 11 9 11 10 8 9 8 8 8 8 8 8 9 9 8 7 6 6 6 7 6 6 5 11 10 9 11 11 12 9 9 9 10 8 8 10 10 10 13 15 15 17 18 18 19 19 19 18 19 18 19 17 17
18 14 14 12 13 15 14 13 14 14 15 15 14 15 16 17 15 15 15 15 14 14 13 13 13 13 12 12 12 12 13 14 15 13 13 12 10 11 10 9 9 8 8 8 7 8 8 8 7 5 7 7 8 9 8 12 14 13 10 9 9 9 9 8 9 7 10 10 9 11 11 12 11 11 10 10 11 16 17 19 16 21 20 18 19
15 14 14 11 11 13 14 14 14 13 12 11 15 21 19 16 16 15 14 15 15 14 14 14 13 13 13 12 12 17 17 18 18 17 17 18 15 13 11 11 11 10 10 9 9 8 8 9 9 8 9 10 10 12 10 10 9 8 10 10 10 9 8 8 8 6 9 11 11 11 10 10 11 10 11 11 10 13 11 12 12 14 18 20 20
12 10 9 10 12 12 16 15 15 14 13 12 19 20 21 22 18 15 15 15 16 15 14 14 14 13 12 13 11 13 14 13 16 20 19 19 18 20 19 18 15 13 12 12 11 9 10 9 9 9 9 10 10 10 11 8 11 12 11 10 9 9 10 10 11 4 9 13 11 11 10 11 11 12 12 12 12 12 12 13 18 20 20 21 21
10 5 4 5 6 8 11 15 14 14 14 17 21 22 23 22 20 16 15 15 15 15 14 14 13 13 13 12 11 10 12 14 10 12 16 19 20 20 21 21 20 19 16 13 12 9 10 9 9 11 10 9 9 10 10 9 9 11 11 11 11 11 10 11 10 10 7 11 11 10 10 9 11 12 11 12 12 12 14 17 21 22 22 22 22
7 7 8 8 9 10 12 16 16 15 14 19 21 24 24 24 23 20 15 17 17 16 15 15 14 13 13 12 11 10 10 17 13 10 11 13 16 21 20 20 21 21 19 18 13 8 8 10 10 10 11 9 10 10 11 11 8 10 11 11 11 11 10 11 11 9 9 13 9 9 10 10 12 12 12 11 12 12 13 18 22 23 24 23 23
7 7 8 10 10 10 12 14 16 16 16 18 21 23 25 25 24 20 15 16 15 16 17 16 14 15 14 13 13 11 9 8 11 12 11 12 12 12 14 14 14 19 21 24 24 19 14 12 12 12 9 10 11 9 10 10 12 11 11 12 11 11 12 13 10 7 8 13 13 9 8 9 12 11 13 11 11 12 12 17 24 24 25 25 24
9 9 9 9 8 9 10 12 16 17 14 17 19 22 22 23 23 20 15 14 13 14 15 16 16 15 14 14 14 13 11 9 8 13 12 12 12 12 13 13 13 14 15 15 15 11 10 11 12 12 8 10 11 9 9 14 15 13 11 12 11 10 10 8 5 6 7 14 13 10 11 9 10 12 13 11 10 12 12 16 23 25 26 26 26
8 8 8 9 10 9 9 13 16 18 17 19 18 20 21 21 23 14 15 14 13 13 14 14 14 13 13 13 13 13 12 12 12 18 16 12 12 13 14 13 12 11 12 13 10 8 8 7 7 8 8 6 6 3 1 3 10 11 8 7 8 8 7 7 10 5 8 9 15 13 9 9 9 12 11 9 9 11 11 11 20 26 26 27 27
10 9 9 8 9 9 9 10 14 16 17 19 21 22 22 23 16 11 15 12 12 13 14 14 14 14 13 13 13 13 14 15 17 19 19 17 12 14 14 14 11 9 11 8 11 15 14 12 11 11 9 7 6 2 0 2 4 7 8 8 11 9 8 10 9 9 10 7 11 14 10 9 8 10 7 9 11 12 11 12 12 22 26 27 27
12 13 13 12 12 13 14 13 12 12 18 18 23 26 27 24 21 18 16 15 13 13 12 12 11 11 13 18 16 14 14 15 17 19 19 18 13 14 14 13 12 12 12 9 5 8 12 12 12 10 9 10 7 6 5 5 4 6 12 13 11 9 11 10 10 9 7 7 9 10 9 11 6 8 8 6 8 9 11 10 11 14 24 24 28
13 13 12 12 13 12 12 13 18 20 17 18 18 23 25 24 22 16 16 14 13 12 11 11 10 10 11 13 19 17 15 16 18 19 21 19 14 13 14 12 13 15 15 10 10 10 7 7 8 8 9 11 9 8 7 9 10 7 8 10 10 11 12 11 10 7 10 10 8 12 12 9 8 8 8 5 8 8 10 10 10 10 13 13 15
Wind_Direction
168 191 175 182 170 171 183 176 180 182 167 196 223 180 207 212 174 146 117 123 131 154 154 120 123 105 103 87 96 98 97 98 107 115 107 100 101 107 109 107 100 103 108 108 111 101 97 106 108 105 106 102 89 97 102 97 95 91 90 89 88 82 83 82 79 78 76 74 72 72 73 65 60 62 63 63 61 54 54 57 57 55 52 48 48
165 193 186 183 170 174 188 173 190 175 162 187 219 163 224 214 134 205 141 134 125 123 129 141 129 134 107 87 82 98 112 112 116 111 106 103 110 118 119 112 113 114 107 108 104 102 102 105 107 106 100 102 102 95 99 97 95 94 95 92 89 90 83 80 80 78 77 78 77 75 73 71 62 60 62 62 61 56 52 56 57 55 52 50 50
164 186 188 176 181 167 194 163 187 185 151 183 219 172 214 188 151 224 139 139 114 121 141 157 116 120 109 114 125 111 93 115 120 117 120 120 124 126 121 122 113 111 122 121 111 102 97 104 108 100 106 104 103 101 94 97 100 98 101 94 92 93 91 87 81 77 78 76 73 71 69 71 69 58 59 64 62 57 52 56 57 55 52 50 50
159 187 171 175 190 156 197 157 166 194 143 168 206 174 194 181 170 226 123 115 128 126 130 132 120 123 123 115 107 119 125 125 128 130 128 140 132 122 129 130 127 122 118 113 122 109 108 117 108 110 114 114 111 110 109 107 107 102 93 96 96 94 93 89 88 83 74 74 73 71 69 72 72 62 58 64 63 60 54 55 58 56 54 51 50
158 193 157 177 181 158 192 186 167 173 149 184 187 171 198 162 181 178 94 109 119 123 140 157 150 132 133 115 114 123 130 108 111 117 131 137 135 134 139 143 135 125 124 93 113 109 104 117 115 111 109 110 113 106 110 102 101 103 105 105 106 96 90 91 89 84 81 76 77 78 77 71 71 66 59 63 65 63 59 55 56 57 54 51 51
163 196 154 175 172 164 188 193 176 163 156 199 158 185 193 161 164 131 152 131 128 122 135 130 115 111 113 131 121 115 91 106 123 131 129 146 135 140 147 141 134 140 141 125 119 117 129 120 116 115 121 115 114 114 112 116 112 104 102 99 95 97 93 94 91 91 92 85 77 79 78 75 74 72 62 61 66 65 62 57 56 56 53 52 51
164 189 163 170 164 176 181 195 176 160 157 186 155 183 198 153 162 146 184 149 143 144 154 131 143 144 140 128 141 135 114 111 130 124 128 142 162 149 149 149 149 155 142 131 127 131 131 118 124 122 117 119 121 118 115 115 114 114 116 112 104 104 110 93 93 95 88 83 82 77 78 79 80 77 70 62 67 67 64 59 58 56 54 53 51
165 188 167 182 167 180 178 186 190 150 159 167 175 178 206 148 172 181 139 200 141 163 134 135 144 115 126 110 107 107 120 57 49 110 139 137 162 146 154 160 155 151 151 137 136 140 138 136 126 130 130 124 124 127 125 115 111 112 105 101 100 97 98 112 106 98 93 90 83 76 75 75 75 78 76 70 67 69 65 60 60 57 54 53 51
168 184 184 190 170 177 182 185 185 151 163 165 199 190 188 167 181 195 153 200 151 176 132 129 130 125 130 130 135 126 112 150 170 204 151 143 176 137 145 165 150 156 145 143 137 140 144 141 139 132 134 133 127 117 122 123 119 115 111 104 105 106 96 92 95 92 91 88 88 86 81 74 71 77 79 74 69 69 68 61 61 58 55 54 51
173 175 191 207 176 173 193 167 178 157 162 158 206 197 177 168 173 194 163 220 153 169 130 142 150 139 150 132 137 130 133 137 141 24 112 140 179 165 163 156 145 153 153 140 141 142 144 146 150 151 141 133 135 139 125 125 136 136 122 117 116 120 121 111 104 101 98 96 90 88 86 81 74 75 79 75 67 65 69 65 63 61 57 54 52
172 176 182 211 189 174 186 160 170 163 162 166 208 208 166 169 168 174 169 226 168 138 127 130 132 138 144 133 138 126 130 135 138 136 259 101 119 154 138 157 155 146 127 143 143 145 147 146 148 137 143 148 150 143 142 148 136 122 127 131 126 121 115 110 106 105 100 97 94 91 90 93 83 72 77 76 72 69 65 65 66 62 59 56 52
171 174 184 209 199 176 165 155 166 171 168 176 204 211 161 175 168 163 186 229 178 119 118 117 114 132 125 120 123 128 129 137 143 158 186 145 188 159 143 139 126 136 135 148 150 152 152 157 156 146 151 158 153 145 156 159 142 144 130 133 134 123 120 123 119 114 108 104 104 97 91 91 93 82 78 81 77 74 71 67 65 65 61 58 54
173 174 183 207 210 168 150 159 173 182 171 187 201 204 157 162 163 159 185 202 167 125 129 123 132 120 115 132 114 120 136 149 152 160 182 144 159 125 130 125 135 169 148 142 151 157 161 166 170 145 151 151 159 156 163 155 142 143 146 137 129 133 129 126 127 120 118 113 108 109 104 97 93 90 86 85 81 77 75 72 68 66 63 61 57
176 174 184 199 204 169 156 166 178 182 167 190 203 186 155 153 168 162 190 190 187 137 135 124 165 163 153 161 137 119 169 183 179 171 154 171 186 213 153 169 168 173 135 153 154 169 167 173 152 145 147 156 159 152 161 168 162 147 139 145 149 140 135 131 128 130 125 121 116 111 109 103 98 92 86 88 89 86 81 79 72 68 66 63 60
179 174 184 195 202 168 156 168 182 176 166 193 206 167 161 163 179 165 177 210 195 140 143 159 172 165 159 136 173 162 130 281 220 194 173 186 171 216 172 174 177 153 142 154 164 181 157 166 143 151 151 162 158 162 160 177 170 156 152 148 148 147 141 142 143 138 133 127 121 115 110 110 108 105 98 92 92 94 91 87 80 74 72 67 65
181 175 188 189 198 169 157 165 192 173 170 191 191 159 163 168 174 168 173 184 197 153 154 181 188 153 176 200 155 190 164 212 189 200 189 174 183 217 196 205 207 157 147 181 168 157 151 172 176 157 164 162 162 161 169 186 172 168 153 152 157 147 149 153 152 146 142 133 129 126 120 118 117 112 106 99 98 95 96 95 87 81 74 73 68
183 182 186 185 196 168 162 165 192 173 170 191 181 165 169 168 176 173 190 181 194 150 161 177 218 233 161 163 133 214 228 136 152 171 175 180 194 215 222 179 188 192 176 176 166 163 162 166 180 156 169 157 159 168 172 183 160 166 159 161 159 154 154 156 154 155 146 141 136 133 132 127 120 116 113 111 107 107 99 94 91 83 80 75 72
183 185 185 180 194 175 168 166 183 181 174 188 179 169 173 181 184 179 199 198 184 149 155 167 197 214 244 160 123 126 165 136 151 157 184 192 195 205 202 210 184 172 211 174 169 135 134 171 203 161 169 161 161 172 173 155 154 155 155 166 164 158 157 158 158 157 154 148 144 139 138 137 128 124 122 119 118 113 106 99 93 89 85 79 76
181 187 184 181 188 183 172 175 174 188 175 185 184 178 177 187 179 184 200 196 203 166 163 169 168 227 239 242 129 125 264 144 199 106 180 207 211 199 212 200 190 183 204 200 179 142 165 176 188 191 149 151 159 170 137 152 157 158 164 169 167 162 159 163 159 161 157 155 152 150 145 140 138 133 128 127 125 120 112 108 103 95 89 85 80
176 189 186 179 185 185 182 177 174 189 181 194 185 179 180 190 172 181 196 192 202 189 164 160 166 189 212 239 191 181 195 210 207 176 149 157 198 209 226 209 191 198 194 199 180 162 170 177 183 195 170 172 167 151 153 160 163 164 168 170 170 168 164 167 165 162 163 160 160 157 151 146 144 143 136 131 128 123 122 118 111 106 99 91 84
178 188 189 182 182 186 186 181 179 185 188 196 189 183 187 190 167 173 195 192 193 190 171 167 159 182 170 207 211 213 198 186 184 193 132 161 178 178 195 207 216 209 209 164 175 169 170 179 183 192 168 181 177 148 162 166 166 171 162 171 174 171 171 173 169 168 169 166 165 159 157 152 151 151 145 142 140 136 134 130 121 112 106 97 91
178 188 192 185 182 186 188 184 191 183 188 193 191 186 184 199 172 175 185 190 186 195 192 171 167 185 175 169 181 215 229 191 184 191 208 176 163 184 182 184 201 213 191 184 179 179 173 173 175 190 175 179 193 166 161 173 175 165 164 169 175 174 176 180 171 170 173 175 169 167 163 160 159 159 155 152 146 148 141 134 130 123 113 106 99
174 185 193 189 181 184 191 185 191 185 186 195 187 184 177 191 185 174 177 184 179 194 198 204 172 185 183 165 181 197 193 196 184 181 178 148 135 171 182 193 198 188 199 188 193 181 171 169 180 182 192 177 188 195 176 175 187 154 164 169 171 175 180 179 172 176 185 169 179 169 171 168 169 166 164 158 155 155 152 144 136 133 126 116 108
174 180 188 193 180 183 189 191 185 188 191 193 181 183 175 180 183 178 175 181 182 179 189 205 197 181 193 179 182 193 194 160 137 136 163 155 156 162 181 202 161 213 170 183 190 186 173 180 182 182 188 188 185 195 193 191 161 153 164 168 170 176 183 178 176 179 188 177 188 177 177 174 173 172 167 166 164 162 157 152 144 140 138 130 121
179 180 184 194 180 176 185 192 187 187 195 191 180 185 176 175 184 176 176 182 187 182 184 192 189 189 191 190 180 180 187 137 135 152 171 132 159 163 189 120 129 192 151 162 182 197 185 181 182 184 185 187 188 193 184 186 147 159 159 171 170 176 184 182 181 181 193 189 186 190 178 178 176 175 170 169 173 171 164 159 154 151 146 144 137
176 181 181 189 185 176 184 189 187 185 193 200 186 183 170 174 181 178 182 186 183 188 187 191 191 189 185 183 190 184 200 157 146 148 159 173 182 199 154 110 139 154 123 173 182 182 203 186 179 178 179 183 190 194 180 176 150 163 163 166 175 178 184 185 184 184 190 204 185 181 177 176 176 175 173 176 176 175 170 163 161 160 155 146 143
179 177 178 184 190 177 183 186 182 183 190 196 188 181 164 166 175 179 177 181 189 187 191 192 191 188 196 195 183 187 195 147 135 151 172 197 201 167 140 128 104 82 175 196 173 205 190 193 184 173 182 175 180 193 188 168 166 168 165 169 177 182 185 185 185 184 192 199 202 173 172 172 172 170 174 178 179 180 174 171 169 166 159 153 147
177 178 178 179 186 179 183 187 184 182 187 195 189 180 168 169 174 173 179 179 187 192 197 200 200 193 194 191 187 193 183 162 157 159 186 201 185 132 144 151 174 186 193 208 193 214 195 175 178 177 179 178 175 177 193 159 162 173 169 170 174 184 189 188 187 186 190 198 201 174 174 174 171 173 178 182 183 184 181 179 177 170 165 160 157
179 180 176 180 182 177 183 186 187 183 182 194 194 185 171 174 179 178 178 178 185 194 196 195 201 199 197 192 190 190 190 173 161 171 176 195 203 163 173 186 188 207 176 209 215 206 192 169 175 182 179 178 174 172 183 175 168 171 178 173 176 181 192 191 193 188 188 192 200 180 182 177 173 176 183 185 188 190 187 185 182 177 171 170 163
180 180 178 179 180 179 178 185 186 187 182 186 192 193 179 177 186 189 178 175 188 190 189 193 198 197 199 194 189 192 192 186 173 166 170 192 201 192 193 209 208 209 215 210 212 196 157 168 176 169 176 174 172 173 174 188 164 175 181 177 180 184 191 191 192 188 185 192 190 177 182 182 179 182 187 187 191 195 192 189 187 182 180 178 170
178 175 179 179 180 181 180 180 185 190 186 184 188 192 189 181 183 190 189 179 179 187 189 191 198 195 200 202 198 199 190 190 180 170 173 189 195 199 198 212 200 210 211 225 233 42 146 173 180 175 172 168 170 169 177 184 169 179 185 182 182 184 187 193 192 190 186 191 185 176 176 184 184 187 191 191 192 197 196 194 192 189 186 183 169
180 179 179 181 183 184 182 179 182 188 191 189 188 189 188 187 183 187 191 191 180 182 191 194 199 198 203 203 203 201 194 187 182 173 179 189 195 194 197 195 202 199 130 214 222 171 187 170 161 162 165 163 168 168 178 177 170 183 192 192 183 180 185 193 196 191 189 185 183 176 176 183 187 189 193 193 194 198 198 197 195 191 188 181 159
182 180 181 182 185 187 184 182 183 186 190 192 190 189 186 189 189 187 188 197 191 184 186 196 202 202 207 212 205 202 193 189 186 177 181 189 190 196 188 181 176 158 149 201 225 175 343 149 163 153 166 159 171 173 175 170 171 185 197 199 190 177 184 190 192 194 189 184 182 178 178 181 186 191 194 195 196 199 200 197 194 185 186 176 166
206 185 184 185 185 185 186 186 186 187 190 192 191 190 190 190 192 187 191 194 198 191 186 197 201 204 202 209 212 202 196 194 189 188 185 186 182 176 180 171 166 162 163 185 228 181 182 161 170 135 162 164 169 172 175 164 178 181 195 202 180 179 185 186 185 193 190 186 182 181 181 183 186 192 196 197 194 197 201 191 189 178 180 172 173
240 196 188 188 187 186 188 189 189 188 189 191 190 193 194 192 192 192 191 192 195 197 190 192 201 202 202 205 210 205 192 195 193 195 180 184 182 175 179 165 175 169 173 197 218 200 160 204 183 158 159 173 172 172 175 171 175 180 191 201 186 182 183 186 186 188 190 188 186 184 184 185 187 192 197 197 195 192 202 187 183 176 176 177 178
238 214 196 190 189 189 190 190 191 190 189 190 191 194 196 193 192 193 193 193 194 198 195 190 199 206 203 203 205 207 199 194 195 192 192 184 182 174 173 165 179 180 176 188 220 225 174 172 215 176 167 170 169 170 166 163 169 182 192 201 187 183 186 190 189 187 188 189 187 187 188 188 189 193 197 198 196 193 197 190 181 179 178 181 184
244 224 200 194 190 191 193 191 191 191 190 190 193 195 196 196 192 190 192 194 197 197 197 195 196 206 204 205 202 205 208 199 199 196 189 191 183 169 167 166 175 182 173 176 194 216 212 180 188 196 160 179 182 163 163 160 171 181 196 206 193 183 187 192 195 187 179 188 189 190 191 191 193 194 197 199 198 195 195 190 185 182 183 184 187
248 236 208 195 191 194 195 194 191 190 190 191 192 194 196 196 193 188 189 194 197 198 197 197 199 200 206 204 205 203 208 206 201 195 186 189 190 173 170 170 175 179 176 173 192 207 208 213 175 181 165 174 192 173 172 164 166 176 192 208 205 190 193 198 200 196 174 183 192 194 194 195 196 196 198 199 199 197 196 192 190 188 188 189 189
236 239 219 198 194 196 196 194 191 188 189 191 192 194 196 196 194 188 188 192 194 197 198 196 199 202 202 206 206 204 207 208 202 193 183 184 191 179 174 174 174 180 184 188 194 198 193 205 202 177 174 187 181 181 174 170 173 179 182 191 213 193 197 199 204 201 171 185 192 189 189 193 196 198 200 200 199 199 198 195 194 193 193 193 193
241 232 224 204 199 199 198 195 192 188 189 191 193 195 196 196 193 192 188 190 192 197 197 198 199 203 203 205 209 206 207 205 204 196 183 186 177 177 175 169 172 181 191 198 195 194 184 192 206 184 180 183 181 190 160 168 177 193 191 186 196 195 199 201 205 192 178 178 189 198 201 199 200 201 203 204 202 201 199 198 198 197 197 197 196
216 234 262 248 209 200 203 199 195 192 192 193 194 193 194 198 195 193 191 190 192 193 195 198 200 202 203 203 206 210 204 204 199 194 190 185 176 176 173 171 177 183 193 206 207 195 183 183 203 191 185 189 189 187 184 184 190 193 181 184 194 196 192 201 213 185 171 174 188 188 195 192 194 197 200 206 211 208 207 202 204 203 201 200 199
225 219 206 218 258 241 217 204 201 200 197 196 194 194 192 194 194 195 192 191 193 193 192 195 200 202 204 202 204 207 205 200 199 195 190 186 175 172 171 176 178 185 191 201 206 202 190 187 194 197 194 200 195 194 199 195 188 176 186 186 192 192 190 208 210 193 173 170 176 192 198 191 192 197 199 206 206 202 209 206 208 204 205 202 201
240 238 238 215 201 228 241 219 205 203 201 199 192 195 198 196 196 193 190 191 194 195 194 192 196 201 203 202 200 204 210 206 199 195 190 187 177 171 175 178 180 183 188 198 212 201 194 193 189 200 206 203 200 195 203 191 179 189 190 187 191 188 196 201 209 181 185 171 183 184 197 190 188 199 201 206 202 202 207 210 209 205 205 204 204
224 194 167 209 236 237 253 247 222 207 204 200 192 196 198 198 196 193 192 193 193 196 195 194 194 196 199 199 200 201 206 209 199 196 197 189 183 179 178 178 181 189 192 195 202 203 195 192 194 201 205 205 197 198 199 198 185 188 189 189 193 196 199 209 206 203 184 178 175 185 199 185 191 202 204 206 203 204 207 209 205 208 206 205 206
202 202 210 203 218 230 246 251 236 216 211 200 196 197 198 198 199 196 196 193 192 191 193 196 194 192 194 197 200 206 205 200 200 192 194 200 194 185 181 182 184 188 199 210 210 199 192 195 200 203 202 193 200 204 199 199 189 188 190 193 199 199 208 214 212 206 164 180 175 187 197 192 187 202 212 207 200 203 207 209 208 207 208 207 207
213 220 217 213 215 222 230 247 249 235 210 202 195 197 199 199 201 201 198 197 196 193 191 192 194 193 192 192 197 203 209 192 200 197 193 192 193 193 191 192 194 195 199 207 217 224 215 196 195 204 196 192 205 203 199 191 198 203 187 199 194 202 209 219 214 203 163 176 184 182 206 196 190 198 214 212 198 200 206 203 205 206 208 209 208
209 208 210 216 218 220 227 246 258 248 224 200 192 194 195 197 201 202 202 196 198 198 196 194 194 195 190 190 193 200 205 205 196 197 191 192 189 193 198 203 204 202 206 211 213 207 203 198 195 197 194 195 205 211 202 194 202 204 198 197 194 204 214 224 232 197 172 181 183 176 214 202 181 198 213 206 200 206 205 201 199 204 206 209 210
209 219 223 216 218 216 220 234 245 249 240 211 197 201 200 200 198 201 205 199 198 200 199 197 196 195 193 190 191 196 198 207 203 193 190 184 185 192 199 206 210 213 217 220 209 202 207 207 200 195 206 174 139 145 141 247 200 190 180 172 189 205 203 207 221 202 212 185 187 192 208 204 184 192 210 202 198 212 204 207 198 201 205 208 209
208 204 227 230 233 232 220 231 246 247 253 221 203 201 202 201 192 202 206 205 202 202 201 199 198 196 194 192 193 195 198 204 201 187 184 174 185 194 201 205 209 215 229 216 183 194 207 213 211 211 205 178 188 156 2 36 306 195 161 174 201 194 208 220 222 217 222 191 199 200 202 212 198 197 193 188 200 209 208 207 199 200 203 206 208
199 204 206 214 219 218 220 216 220 248 256 244 207 203 202 199 192 201 206 208 208 203 202 201 200 201 198 195 197 197 201 205 195 180 180 176 188 196 201 204 204 214 226 212 193 212 204 210 219 219 223 228 222 241 228 242 261 261 187 201 193 187 215 213 220 216 227 202 205 184 197 218 182 195 203 197 200 215 215 211 198 196 202 206 207
201 205 208 212 220 219 225 230 217 218 236 256 226 203 200 194 194 204 207 210 208 202 201 200 201 199 200 198 200 202 203 206 187 181 182 183 194 193 197 198 207 218 223 201 206 208 195 207 225 225 246 241 230 220 238 221 224 233 250 217 183 197 212 213 214 213 226 227 201 174 199 214 191 208 182 168 214 222 210 212 202 186 195 202 208